Regional Weather Roundup
Issued by NWS

Home | Current Version | Previous Version | Graphics & Text | Print | Product List | Glossary On
Versions: 1 2 3 4 5 6 7 8 9 10 11 12 13 14 15 16 17 18 19 20 21 22 23 24 25 26 27 28 29 30 31 32 33 34 35 36 37 38 39 40 41 42 43 44 45 46 47 48 49 50
000
ASUS43 KFSD 211402
RWRSD

WEATHER ROUNDUP FOR SOUTH DAKOTA
NATIONAL WEATHER SERVICE SIOUX FALLS SD
800 AM CST TUE NOV 21 2017

NOTE: "FAIR" INDICATES FEW OR NO CLOUDS BELOW 12,000 FEET WITH NO
SIGNIFICANT WEATHER AND/OR OBSTRUCTIONS TO VISIBILITY.


SDZ001>005-009-010-012>017-211500-
NORTHWEST AND NORTH CENTRAL SOUTH DAKOTA

CITY           SKY/WX    TMP DP  RH WIND       PRES   REMARKS
BUFFALO          N/A     11   1  64 NW23      30.18R WCI  -9
FAITH            N/A      9   1  70 NW20      30.27R WCI -10
MOBRIDGE       CLOUDY    13   3  64 NW23      30.24R WCI  -6
$$

SDZ012>016-024>037-041>051-057-063-072>074-211500-
SOUTHWEST AND SOUTH CENTRAL SOUTH DAKOTA

CITY           SKY/WX    TMP DP  RH WIND       PRES   REMARKS
RAPID CTY ARPT CLEAR     21  17  84 N13       30.23R WCI   9
PIERRE         FLURRIES  13   5  70 N17       30.28R WCI  -4
CUSTER         CLOUDY    26  19  74 NE3       30.14R
ELLSWORTH AFB  CLOUDY    22  19  89 N13       30.22R WCI  10
PHILIP         CLOUDY    17   5  59 N20       30.28R WCI   1
PINE RIDGE     CLOUDY    30  22  72 N14G20    30.23R WCI  19
SPEARFISH      CLOUDY    25  19  80 NW13G20   30.23R WCI  13
WINNER         FAIR      16   7  67 NW15      30.25R WCI   1
$$

SDZ004>011-016>023-039-040-211500-
NORTHEAST SOUTH DAKOTA

CITY           SKY/WX    TMP DP  RH WIND       PRES   REMARKS
ABERDEEN       CLEAR     13   6  74 NW22      30.22R WCI  -6
WATERTOWN      CLOUDY    15   8  73 NW26G36   30.10R WCI  -4
BROOKINGS      FLURRIES  16   9  74 NW18G30   30.11R WCI   0
SISSETON         N/A     17   9  70 NW23G32   30.13R WCI  -1
$$

SDZ017-020-022-023-036>040-048>070-211500-
SOUTHEAST SOUTH DAKOTA

CITY           SKY/WX    TMP DP  RH WIND       PRES   REMARKS
SIOUX FALLS    PTCLDY    19   9  65 NW21G28   30.12R WCI   3
HURON          CLEAR     15   6  67 NW17G32   30.23R WCI  -1
CHAMBERLAIN    CLOUDY    17   8  67 NW26      30.24R WCI  -1
MITCHELL       CLEAR     16   7  67 NW22G31   30.23R WCI  -2
YANKTON        CLEAR     19   8  62 NW17G26   30.18R WCI   4
$$

ABBREVIATIONS USED IN REMARKS
   TC - TEMPERATURE IN CELSIUS
  WCI - WIND CHILL INDEX
   HX - HEAT INDEX
  VSB - VISIBILITY





USA.gov is the U.S. government's official web portal to all federal, state and local government web resources and services.